Location: T�chigga el Be�da
(16.4766°N, 9.3887°W)
Time: 06:19:52
(UTC+00:00)

Palapa B4 Rocket - Pass Details

Date: 27 February 2020
Orbit: 502 x 2696 km, 19.7° (Epoch: 06 April)

Event Time Altitude Azimuth Distance (km) Brightness Sun altitude
Rises 20:14:52 0° 253° (WSW) 5,750 9.3 -22.5°
Reaches altitude 10° 20:19:15 10° 252° (WSW) 4,427 8.4 -23.6°
Maximum altitude 20:30:42 81° 167° (SSE) 1,361 4.6 -26.3°
Enters shadow 20:32:42 55° 91° (E) 1,444 4.4 -26.8°
